| DS18B20 | SHTC3 | ||||||
|---|---|---|---|---|---|---|---|
| ID | Date d/m/Y & Time | data1 สูง | data2 ต่ำ | data3 นอก | temp pcb | hum pcb | Time |
| 1132 | 10/03/2026 10:07:59 | 29.1  | 28.5  | 30.5  | 28.6  | 67.6  | 10:07 |
| 1131 | 10/03/2026 10:03:18 | 29.0  | 28.4  | 30.4  | 28.6  | 67.8  | 10:03 |
| 1130 | 10/03/2026 09:58:34 | 28.9  | 28.4  | 30.1  | 28.4  | 68.0  | 09:58 |
| 1129 | 10/03/2026 09:53:53 | 28.8  | 28.2  | 30.2  | 28.5  | 67.8  | 09:53 |
| 1128 | 10/03/2026 09:49:10 | 28.7  | 28.2  | 30.2  | 28.2  | 67.9  | 09:49 |
| 1127 | 10/03/2026 09:44:29 | 28.6  | 28.1  | 30.0  | 28.2  | 67.8  | 09:44 |
| 1126 | 10/03/2026 09:39:47 | 28.5  | 28.0  | 29.9  | 28.1  | 67.8  | 09:39 |
| 1125 | 10/03/2026 09:35:05 | 28.4  | 27.9  | 29.5  | 28.1  | 68.1  | 09:35 |
| 1124 | 10/03/2026 09:30:23 | 28.4  | 27.8  | 29.7  | 28.1  | 68.3  | 09:30 |
| 1123 | 10/03/2026 09:25:41 | 28.2  | 27.8  | 29.4  | 27.8  | 68.3  | 09:25 |
| 1122 | 10/03/2026 09:20:59 | 28.2  | 27.7  | 29.5  | 27.7  | 68.6  | 09:20 |
| 1121 | 10/03/2026 09:16:16 | 28.1  | 27.6  | 29.4  | 27.6  | 68.7  | 09:16 |
| 1120 | 10/03/2026 09:11:34 | 28.0  | 27.5  | 29.2  | 27.5  | 68.8  | 09:11 |
| 1119 | 10/03/2026 09:02:05 | 27.8  | 27.4  | 29.0  | 27.2  | 69.0  | 09:02 |
| 1118 | 10/03/2026 08:57:23 | 27.8  | 27.2  | 29.0  | 27.4  | 69.2  | 08:57 |
| 1117 | 10/03/2026 08:52:41 | 27.7  | 27.2  | 29.0  | 27.2  | 69.4  | 08:52 |
| 1116 | 10/03/2026 08:47:59 | 27.6  | 27.1  | 29.0  | 27.1  | 69.6  | 08:47 |
| 1115 | 10/03/2026 08:43:17 | 27.4  | 27.0  | 29.0  | 27.1  | 69.7  | 08:43 |
| 1114 | 10/03/2026 08:38:35 | 27.3  | 26.9  | 28.5  | 27.1  | 69.9  | 08:38 |
| 1113 | 10/03/2026 08:33:53 | 27.2  | 26.9  | 28.2  | 27.1  | 70.1  | 08:33 |
| 1112 | 10/03/2026 08:29:11 | 27.2  | 26.8  | 28.2  | 26.6  | 70.2  | 08:29 |
| 1111 | 10/03/2026 08:24:29 | 27.1  | 26.7  | 28.4  | 26.6  | 70.1  | 08:24 |
| 1110 | 10/03/2026 08:19:46 | 26.9  | 26.6  | 28.2  | 26.6  | 70.4  | 08:19 |
| 1109 | 10/03/2026 08:15:04 | 26.8  | 26.5  | 28.1  | 26.6  | 70.5  | 08:15 |